Location: Unspecified
(0.0000°N, 0.0000°E)
Time: 02:31:23
(UTC+00:00)

CORVUS BC2 - Pass Details

Date: 19 February 2026
Orbit: 540 x 560 km, 97.4° (Epoch: 6 March)

Event Time Altitude Azimuth Distance (km) Brightness Sun altitude
Rises 04:18:17 0° 167° (SSE) 2,747 ? -28.3°
Reaches altitude 10° 04:20:25 10° 165° (SSE) 1,849 ? -27.8°
Enters shadow 04:22:32 30° 161° (SSE) 1,012 ? -27.2°
